Погода в Светлом

Россия / Оренбургская область     50°49′20″N   60°51′22″E
темп.,
°C
ветер,
м/с
пор.,
м/с
влажн.,
%
обл.,
%
осадки,
мм/ч
давл.,
гПа
погр.,
м
12 мая, ср
ср1223:00+14в334320 0.0 102739
02:00+12в34495 0.0 102845
05:00+11в335248 0.0 102933
08:00+15вюв344454 0.0 1030236
11:00+20юв3432100 0.0 10291366
14:00+22юв332645 0.0 10291830
17:00+23юв22245 0.0 10281938
20:00+20ююв22345 0.0 102816
13 мая, чт
чт1323:00+16ююз22415 0.0 102811
02:00+15з22420 0.0 102811
05:00+14сз33440 0.0 102825
08:00+18с34380 0.0 1028207
11:00+23ссв44264 0.0 10281365
14:00+25с23210 0.0 10272223
17:00+26ссз33215 0.0 10262408
20:00+23зсз33305 0.0 102635
14 мая, пт
пт1423:00+19сз47375 0.0 102697
02:00+17сз49416 0.0 1027125
05:00+16ссз48426 0.0 1027109
08:00+20с45395 0.0 1028209
11:00+26ссв33314 0.0 10271171
14:00+28ссв33265 0.0 10262672
17:00+29ссв33235 0.0 10262852
20:00+25в33311 0.0 102531
15 мая, сб
сб1523:00+21ююв33452 0.0 102646
02:00+19ююз22490 0.0 102613
05:00+18ю33510 0.0 102617
08:00+22ююз23430 0.0 1027231
11:00+26ю21330 0.0 10261349
14:00+28ююв22272 0.0 10252737
17:00+29ююв32255 0.0 10242947
20:00+25ююв58371 0.0 1023188
16 мая, вс
вс1623:00+21ю46373 0.0 102488
02:00+19ююз33392 0.0 102419
05:00+18зюз22410 0.0 102412
08:00+23зюз22330 0.0 1024205
11:00+27юз11260 0.0 10231228
14:00+29ююв22232 0.0 10222981
17:00+29ю322210 0.0 10213163
20:00+26ю463325 0.0 102096